Theta_e
318 319 320 319 320 320 319 319 320 320 321 321 321 321 320 319 320 320 323 323 322 321 317 318 318 319 317 318 320 322 322 322 318 323 324 327 326 326 328 327 326 323 322
317 320 319 320 319 318 319 319 321 321 322 321 321 321 321 321 320 322 322 322 320 319 319 320 319 320 319 319 320 322 323 323 322 320 324 325 325 328 328 325 326 326 324
316 319 319 319 319 318 318 320 322 322 321 322 322 321 322 323 321 321 322 320 318 320 320 319 319 320 320 319 322 323 324 324 324 323 321 323 325 326 325 323 322 322 324
315 318 318 319 319 319 319 318 321 323 322 323 324 324 325 326 322 321 321 320 320 320 321 320 319 319 318 319 321 322 323 323 322 320 319 318 320 321 321 319 315 313 314
314 318 318 319 319 321 320 320 321 323 325 326 325 326 326 326 325 322 321 321 320 320 322 323 321 321 319 319 321 320 320 320 319 316 314 316 315 317 318 313 313 310 310
313 316 319 318 320 320 321 320 317 318 323 326 325 325 325 325 307 311 319 323 323 321 321 322 322 320 316 313 314 316 318 318 316 315 311 312 310 312 310 310 308 307 306
313 315 319 318 319 320 321 319 316 316 315 317 321 323 322 319 305 307 312 323 323 323 322 322 323 322 320 322 312 309 308 309 311 315 312 311 310 310 310 307 308 307 308
313 315 318 317 319 318 319 315 314 312 311 312 315 317 319 314 304 303 309 323 323 323 323 323 322 321 321 320 316 315 315 314 314 315 314 313 312 312 312 312 310 310 309
314 315 316 316 318 317 316 313 311 311 310 310 312 313 315 313 301 302 316 323 323 323 323 323 323 321 307 304 315 311 310 308 302 303 300 298 298 304 310 314 310 309 303
315 315 316 315 318 317 316 313 312 310 311 312 310 310 307 311 299 301 314 321 320 321 321 320 311 317 302 301 312 309 309 306 307 305 302 301 302 301 302 310 309 304 298
316 316 314 314 316 316 316 315 313 312 310 309 310 309 307 307 306 299 305 319 319 320 319 317 315 303 299 298 304 309 307 304 301 304 305 305 304 304 304 302 302 302 300
315 315 314 312 317 317 316 315 314 312 309 307 307 306 307 304 299 300 301 307 308 316 316 315 311 296 297 298 303 300 295 301 304 304 304 302 301 300 300 301 301 302 302
312 312 311 312 313 315 316 314 313 312 311 309 307 306 307 305 301 297 299 299 302 310 311 307 295 294 293 295 295 295 297 304 303 302 300 298 297 298 299 300 300 298 297
311 310 309 311 310 314 317 317 316 313 312 313 311 308 307 304 301 297 300 302 301 303 299 297 296 295 295 295 296 299 301 304 303 301 298 297 297 298 297 298 297 295 294
310 309 308 311 312 314 317 317 317 317 316 315 315 314 310 307 304 299 298 302 305 302 295 293 292 293 293 292 292 297 301 301 300 297 297 297 297 297 296 297 294 292 291
310 309 308 310 312 315 315 310 297 303 301 301 302 310 313 307 299 295 294 295 294 293 296 294 292 292 293 292 294 298 300 299 298 297 297 298 297 296 294 292 292 291 290
311 311 309 308 312 314 314 314 312 305 298 297 297 300 302 306 296 294 293 292 292 293 299 295 296 294 294 295 298 300 299 298 297 299 298 296 296 295 293 293 293 292 289
313 304 310 310 311 313 315 315 315 313 311 310 298 299 295 296 296 294 291 294 294 296 299 298 297 296 295 297 300 300 298 296 298 297 296 296 296 295 293 293 292 289 289
314 312 312 311 312 311 314 314 314 314 313 310 301 296 292 292 292 291 292 302 302 300 301 301 301 300 299 300 300 300 300 299 298 296 296 297 296 295 295 293 290 288 288
315 307 308 312 312 312 313 312 313 312 311 312 308 309 295 296 299 296 295 299 299 303 306 306 305 306 307 305 303 302 300 297 297 298 298 298 297 297 293 293 292 291 288
316 310 303 312 312 313 313 313 313 312 311 310 310 307 295 304 305 302 299 301 302 301 303 307 306 306 308 307 304 302 301 300 299 299 299 297 297 296 295 294 292 291 289
316 314 313 313 313 313 313 313 313 313 312 311 310 304 291 304 307 303 303 304 305 304 303 304 305 307 307 307 305 303 302 301 300 300 299 298 298 296 295 294 292 291 290
316 314 314 315 314 305 308 313 313 313 312 312 311 307 298 303 307 306 305 306 306 307 304 305 306 306 305 305 305 305 303 301 301 301 300 298 296 295 294 293 292 291 290
317 316 314 315 314 313 312 312 312 304 312 311 311 309 306 305 306 307 307 306 307 308 308 308 308 307 306 305 305 305 305 303 302 302 300 298 296 294 295 294 292 290 288
318 317 315 315 314 312 312 313 312 311 311 311 310 310 310 308 306 307 307 307 308 308 308 309 308 306 304 303 303 303 295 292 300 297 300 299 297 296 295 292 290 288 286
317 318 317 315 314 313 313 311 312 312 311 311 311 309 309 309 309 309 307 307 308 307 305 305 305 303 302 301 299 293 291 291 294 294 300 299 297 294 292 290 288 286 285
Wind_Speed
5 3 2 1 2 2 2 2 3 3 4 4 4 6 6 6 6 8 8 8 7 6 5 6 6 5 5 4 4 4 5 3 6 3 6 9 8 9 6 4 4 4 3
6 4 2 3 4 3 3 2 3 5 4 3 5 5 7 7 6 9 8 8 9 8 9 7 6 5 7 5 4 5 6 3 7 8 9 6 9 8 5 6 3 3 3
6 6 4 4 4 3 3 2 3 4 5 5 5 6 6 7 8 7 9 8 6 8 6 8 7 8 7 5 6 6 5 5 5 6 4 4 5 6 4 4 2 2 1
6 6 6 4 4 4 3 3 3 3 5 6 6 6 7 7 9 8 8 8 7 6 6 7 6 7 8 8 7 6 6 8 7 6 5 4 4 3 3 2 2 1 2
7 6 6 5 4 5 3 3 3 5 3 4 6 8 8 7 7 9 10 9 8 7 6 8 6 9 12 9 7 6 6 7 5 5 3 3 3 3 3 2 2 1 1
7 7 6 5 5 5 4 2 4 3 5 4 5 9 7 5 11 12 8 8 8 8 9 9 9 12 12 11 11 8 5 4 3 4 3 3 3 3 3 4 3 2 1
8 6 6 6 5 5 5 5 5 4 4 5 5 7 7 7 13 13 11 6 8 7 9 9 7 6 6 5 7 4 2 4 2 4 5 4 4 6 5 3 3 3 2
8 8 6 6 6 6 6 6 5 3 4 5 4 5 6 5 11 11 11 7 7 7 8 8 7 5 3 3 3 2 2 5 4 3 5 5 3 6 5 5 6 5 3
9 9 7 7 7 6 6 7 4 4 3 3 4 4 6 5 7 11 9 8 7 7 7 7 7 5 5 3 4 5 5 4 7 9 12 12 9 8 7 5 3 4 2
11 11 9 7 8 8 7 7 4 3 5 5 5 4 5 7 7 6 7 6 9 6 5 5 7 5 8 7 5 6 7 3 5 6 6 8 8 7 6 2 5 4 3
12 10 9 8 8 8 7 5 6 5 5 5 5 4 4 5 6 9 10 6 6 7 6 4 3 5 6 8 6 5 4 6 6 6 5 4 5 6 5 5 4 6 4
12 11 9 8 7 6 9 6 6 7 6 5 6 3 2 3 5 8 10 8 8 6 6 4 3 7 7 9 8 8 10 8 5 5 5 4 4 5 5 8 10 10 8
12 11 9 9 7 8 8 7 5 6 6 5 5 4 3 2 2 5 7 10 10 5 4 6 10 8 9 6 7 11 9 5 5 5 4 3 3 4 6 9 11 12 11
13 11 9 10 7 7 5 7 7 6 5 6 5 5 4 3 3 2 3 4 7 7 9 6 6 7 6 6 6 4 4 4 5 6 4 4 4 3 4 3 6 5 5
13 11 10 9 11 9 8 8 8 8 9 8 6 6 6 4 6 8 8 5 5 6 8 4 3 3 3 3 3 3 4 5 5 4 5 4 4 4 2 3 3 2 4
12 10 9 9 8 8 8 4 7 3 11 11 13 8 5 8 12 14 13 9 12 16 4 4 4 4 5 5 5 4 2 4 4 5 4 6 6 6 4 3 2 5 7
15 12 9 9 10 9 8 8 7 2 3 6 10 14 13 12 13 14 14 11 14 9 4 5 5 7 6 7 6 5 6 5 5 6 7 7 7 6 8 6 5 7 5
13 14 11 10 10 10 10 10 8 8 8 5 6 8 7 7 13 14 13 11 4 4 3 5 7 8 6 7 6 5 4 4 6 6 6 7 8 10 7 8 7 8 8
12 10 11 10 10 11 9 9 9 8 8 5 3 2 4 3 5 9 16 7 8 7 6 5 5 6 6 6 6 6 8 9 8 7 7 7 7 7 7 6 4 5 6
12 15 12 10 9 9 8 8 8 8 7 7 7 8 5 5 5 5 7 8 6 8 8 9 7 8 9 10 9 9 8 6 7 7 7 7 6 6 5 3 7 6 3
9 9 11 9 10 10 10 10 9 9 9 8 9 8 12 9 9 7 8 9 10 9 8 8 6 6 6 6 6 8 9 8 9 9 8 8 9 7 5 8 7 6 6
10 10 11 11 9 10 10 9 9 10 10 9 8 6 13 10 8 8 9 9 11 11 9 8 8 9 10 10 9 8 9 9 10 9 9 8 7 6 8 8 5 4 5
9 10 11 9 10 9 8 10 10 10 10 10 9 7 8 10 10 10 10 10 9 9 9 10 10 7 5 7 8 11 12 11 10 10 10 10 7 7 6 8 7 4 4
11 12 12 10 9 9 10 10 10 11 11 10 10 9 10 10 11 12 10 8 8 9 9 10 10 12 11 10 9 10 10 11 12 12 18 15 11 7 5 7 6 5 5
9 9 9 11 11 11 10 10 10 10 10 9 9 10 10 9 9 9 7 7 8 8 9 9 8 11 14 16 14 14 13 16 16 16 13 18 14 12 10 7 5 5 5
8 10 9 8 8 8 9 9 11 10 10 11 10 10 10 11 10 9 7 8 8 8 8 7 8 12 15 13 17 21 21 21 19 19 14 13 13 8 8 9 10 6 6
Wind_Direction
172 190 154 127 86 84 89 92 54 41 55 74 93 109 107 107 108 105 130 134 129 109 100 107 107 113 106 100 86 102 105 86 110 91 118 134 130 135 138 119 147 166 157
177 164 162 108 108 104 76 82 64 61 62 88 102 100 106 107 106 125 135 144 143 139 139 116 117 111 105 108 98 100 111 90 126 124 130 138 150 145 131 140 157 138 176
164 148 142 130 130 123 101 93 69 84 71 69 72 88 95 111 109 110 128 124 111 122 125 131 131 131 120 113 112 106 113 113 114 129 110 80 103 128 104 90 106 67 195
157 151 151 163 145 135 125 106 102 96 93 97 91 91 112 113 111 107 106 101 98 94 102 112 116 128 124 120 109 108 122 119 99 103 92 80 84 90 86 108 95 44 237
156 152 169 161 138 131 135 129 111 96 79 90 106 103 107 108 114 111 117 119 113 106 99 100 97 99 91 93 108 94 80 94 97 93 90 85 105 125 147 149 121 132 298
159 170 158 153 145 139 138 131 92 99 104 99 73 92 96 101 114 107 111 115 117 124 105 104 108 102 90 91 93 94 97 104 109 120 113 122 125 129 129 149 124 87 44
161 165 162 155 157 153 143 121 104 110 95 91 87 98 111 133 131 126 119 116 115 116 118 119 107 103 100 98 61 24 280 206 152 150 133 162 152 172 141 121 141 130 152
163 164 166 159 153 136 146 137 118 112 111 108 110 101 103 100 132 133 126 114 112 125 126 123 124 132 128 88 49 44 116 135 140 169 170 168 144 167 142 164 158 133 90
173 168 173 162 142 134 143 144 131 128 110 111 126 125 119 106 120 131 135 137 127 125 126 137 147 164 169 156 139 138 101 68 49 87 87 86 83 133 140 104 101 113 95
178 177 168 162 148 148 149 157 145 145 134 121 114 121 131 135 153 136 118 126 133 137 119 132 146 164 169 189 151 135 115 119 108 97 76 57 63 67 98 122 140 116 124
176 164 162 163 160 154 149 149 140 135 126 126 118 105 112 132 148 163 146 134 144 156 158 170 182 184 181 186 163 149 152 132 91 96 97 90 60 57 65 83 104 116 110
166 165 167 163 166 154 153 145 147 137 139 145 133 112 95 98 104 155 154 136 144 147 165 164 150 164 180 180 168 156 136 121 119 108 101 100 111 90 66 72 70 70 59
162 170 168 164 160 160 156 154 143 148 147 157 155 163 176 157 127 102 157 150 151 137 148 140 132 144 134 112 131 137 126 117 122 115 134 122 115 110 89 84 82 81 67
166 172 164 166 160 162 160 163 163 166 159 161 163 175 181 174 184 167 135 146 122 94 102 101 118 116 101 121 114 110 122 137 144 142 125 99 95 105 115 110 108 113 107
169 169 171 174 176 172 179 177 181 189 179 175 183 173 165 190 211 185 170 171 170 142 111 101 112 109 129 128 104 132 140 145 139 135 140 134 119 114 95 104 118 61 90
172 171 172 172 177 177 172 145 44 188 190 183 164 164 199 203 172 181 191 175 142 145 105 148 177 174 175 178 176 169 136 146 151 135 131 145 142 140 130 96 105 122 116
178 176 170 166 174 173 177 181 188 14 167 194 193 184 184 184 179 186 188 169 163 149 158 171 185 184 189 187 179 169 175 181 157 159 157 154 146 134 140 145 131 123 111
180 171 171 176 176 178 182 186 186 188 200 202 191 200 231 204 184 184 154 116 127 264 180 176 193 185 181 184 175 170 154 149 173 162 156 156 157 158 151 149 157 152 140
174 176 178 176 180 180 179 179 184 185 193 174 126 160 118 161 166 148 169 181 189 200 206 205 189 179 177 171 174 172 175 180 173 164 164 166 163 155 151 146 134 132 115
179 175 173 174 169 173 175 178 180 182 187 190 194 204 146 128 176 170 189 211 203 209 205 212 199 194 189 183 177 174 170 163 168 167 163 155 145 142 96 103 128 149 141
179 164 171 169 176 180 180 185 186 187 193 197 206 191 178 186 205 191 187 203 212 207 205 207 188 188 187 175 170 174 174 174 172 170 163 159 152 149 145 144 149 143 140
173 168 175 180 176 183 188 186 187 191 196 197 205 190 180 201 201 197 200 202 208 214 211 201 193 193 191 188 183 178 173 171 168 161 154 150 154 140 140 141 131 132 143
166 166 179 183 184 181 179 187 189 194 198 199 196 186 180 203 211 209 209 208 201 201 196 196 202 199 171 161 159 165 172 178 170 152 138 123 130 128 135 139 130 155 151
170 172 179 183 180 184 187 192 197 198 198 199 195 195 193 202 209 215 212 204 201 204 200 201 201 192 185 181 179 176 164 155 149 145 136 132 133 126 146 127 153 160 141
169 174 182 183 184 187 189 194 196 198 203 201 202 201 203 202 206 213 204 193 201 197 199 194 192 187 180 171 167 160 135 134 135 130 137 136 144 157 157 147 137 128 134
164 174 182 184 187 182 190 190 199 197 201 206 207 203 200 205 206 210 193 188 192 188 178 178 173 159 153 147 139 136 139 136 135 133 142 148 144 152 136 132 142 146 139